Regional Weather Roundup
Issued by NWS

Home | Current Version | Previous Version | Text Only | Print | Product List | Glossary Off
Versions: 1 2 3 4 5 6 7 8 9 10 11 12 13 14 15 16 17 18 19 20 21 22 23 24 25 26 27

000
ASUS45 KCYS 220010
RWRWY

WYOMING REGIONAL WEATHER ROUNDUP
NATIONAL WEATHER SERVICE CHEYENNE WY
600 PM MDT MON MAY 21 2018

NOTE:  "FAIR" INDICATES FEW OR NO CLOUDS BELOW 12,000 FEET
WITH NO SIGNIFICANT WEATHER AND/OR OBSTRUCTIONS TO VISIBILITY.

WYZ001-220100-
YELLOWSTONE NATIONAL PARK

CITY           SKY/WX    TMP DP  RH WIND       PRES   REMARKS
LK YELLOWSTONE   N/A     52  36  54 CALM      30.12R
6HR MIN TEMP:  49; 6HR MAX TEMP:  60;

W YELLOWSTONE  NOT AVBL

$$
WYZ002>013-054>058-071-098>099-220100-
NORTHERN WYOMING

CITY           SKY/WX    TMP DP  RH WIND       PRES   REMARKS
JACKSON        LGT RAIN  61  37  41 NW14      30.03R
CODY           FAIR      64  45  49 S8        29.98F
GREYBULL       LGT RAIN  68  47  46 SE12      29.91R
6HR MIN TEMP:  68; 6HR MAX TEMP:  80; 6HR PCP: TRACE;

WORLAND        FAIR      70  47  43 NW6       29.92R
6HR MIN TEMP:  67; 6HR MAX TEMP:  76;

SHERIDAN       CLOUDY    65  49  56 NW16      29.91R
6HR MIN TEMP:  64; 6HR MAX TEMP:  75; 6HR PCP: TRACE;

BUFFALO        FAIR      71  48  43 N5        29.95S
6HR MIN TEMP:  70; 6HR MAX TEMP:  74; 6HR PCP: TRACE;

GILLETTE       FAIR      74  51  44 NW7       29.90S
6HR MIN TEMP:  72; 6HR MAX TEMP:  79;

NEWCASTLE      FAIR      73  37  27 NW5       29.92S

$$
WYZ014>020-022>026-101>103-220100-
CENTRAL WYOMING

CITY           SKY/WX    TMP DP  RH WIND       PRES   REMARKS
BIG PINEY      PTSUNNY   62  34  35 S12G21    30.06R
6HR MIN TEMP:  60; 6HR MAX TEMP:  69; 6HR PCP: TRACE;

PINEDALE       FAIR      61  32  33 NW10      30.05S
DUBOIS         MOCLDY    55  34  44 NW15      30.06R
LANDER         LGT RAIN  65  47  52 N14       29.94R
6HR MIN TEMP:  64; 6HR MAX TEMP:  73; 6HR PCP:  0.02;

RIVERTON       PTSUNNY   66  42  41 N24G31    29.95S
6HR MIN TEMP:  66; 6HR MAX TEMP:  75;

CASPER         PTSUNNY   75  36  24 CALM      29.92S
6HR MIN TEMP:  70; 6HR MAX TEMP:  77;

DOUGLAS        FAIR      74  46  36 SE7       29.94S
6HR MIN TEMP:  69; 6HR MAX TEMP:  75;


$$
WYZ021-027>030-104>119-220100-
SOUTHERN WYOMING

CITY           SKY/WX    TMP DP  RH WIND       PRES   REMARKS
EVANSTON       FAIR      57  41  55 N18       30.04R
6HR MIN TEMP:  49; 6HR MAX TEMP:  68; 6HR PCP:  0.05;

KEMMERER       LGT RAIN  54  36  50 W20G26    30.07S
FORT BRIDGER   MOCLDY    62  40  44 N16G24    30.06F
ROCK SPRINGS   FAIR      66  32  28 NE6       30.00F
6HR MIN TEMP:  56; 6HR MAX TEMP:  70; 6HR PCP:  0.01;

DIXON          FAIR      75  22  13 W8        29.99S
RAWLINS        FAIR      71  28  20 VRB6      30.01S
6HR MIN TEMP:  67; 6HR MAX TEMP:  76;

SARATOGA       MOCLDY    72  23  16 SW7       30.01F
LARAMIE        PTSUNNY   66  36  32 SE15      30.04S
6HR MIN TEMP:  60; 6HR MAX TEMP:  72; 6HR PCP: TRACE;

CHEYENNE       LGT RAIN  59  52  77 N15       30.04R
6HR MIN TEMP:  55; 6HR MAX TEMP:  73; 6HR PCP:  0.36;

TORRINGTON     FAIR      65  56  72 SE8       29.93S
6HR MIN TEMP:  65; 6HR MAX TEMP:  77;

PINE BLUFFS    FAIR      64  52  63 NE8       30.00R

$$




USA.gov is the U.S. government's official web portal to all federal, state and local government web resources and services.